FW6147 Weather Reports


time (UTC)temp
F
wind
direction
speed
knots
gust
knots
rain 1hr
in
rain 24hr
in
rain mn
in
humidity
%
barometer
mb
20200531071055 69 0 0.0 1.7 0.00 0.00 0.00 38 1018.5
20200531070600 69 0 0.0 2.6 0.00 0.00 0.00 38 1018.5
20200531070113 68 0 0.0 2.6 0.00 0.00 0.00 39 1018.5
20200531065556 68 295 0.0 1.7 0.00 0.00 0.00 39 1018.5
20200531065058 68 0 0.0 2.6 0.00 0.00 0.00 39 1018.4
20200531064639 68 296 0.9 2.6 0.00 0.00 0.00 39 1018.4
20200531064057 69 0 0.0 1.7 0.00 0.00 0.00 38 1018.6
20200531063556 69 0 0.0 2.6 0.00 0.00 0.00 37 1018.6
20200531063055 70 0 0.0 2.6 0.00 0.00 0.00 36 1018.6
20200531062558 72 0 0.0 0.0 0.00 0.00 0.00 34 1018.6
20200531062059 73 0 0.0 0.0 0.00 0.00 0.00 34 1018.7
20200531061714 73 0 0.0 2.6 0.00 0.00 0.00 33 1018.6
20200531061054 74 0 0.0 2.6 0.00 0.00 0.00 33 1018.6
20200531060555 75 0 0.0 2.6 0.00 0.00 0.00 33 1018.7
20200531060124 75 308 0.9 3.5 0.00 0.00 0.00 33 1018.7
20200531055606 75 307 0.9 3.5 0.00 0.00 0.00 33 1018.6
20200531055100 74 360 1.7 3.5 0.00 0.00 0.00 37 1018.7
20200531054644 74 315 0.9 3.5 0.00 0.00 0.00 36 1018.6
20200531054055 74 313 0.9 3.5 0.00 0.00 0.00 36 1018.6
20200531053554 74 310 0.9 3.5 0.00 0.00 0.00 35 1018.6
20200531053240 75 308 0.9 2.6 0.00 0.00 0.00 35 1018.6
20200531052603 76 0 0.9 2.6 0.00 0.00 0.00 32 1018.5
20200531052107 76 294 0.0 1.7 0.00 0.00 0.00 32 1018.5
20200531051726 77 0 0.0 1.7 0.00 0.00 0.00 31 1018.4
20200531051109 78 0 0.9 2.6 0.00 0.00 0.00 31 1018.4
20200531050556 79 292 0.0 2.6 0.00 0.00 0.00 30 1018.4
20200531050222 79 292 0.9 4.3 0.00 0.00 0.00 28 1018.4
20200531045555 80 289 1.7 5.2 0.00 0.00 0.00 28 1018.2
20200531045055 80 275 1.7 7.0 0.00 0.00 0.00 27 1018.1
20200531044747 80 276 4.3 7.0 0.00 0.00 0.00 27 1018.0
20200531044055 80 253 2.6 5.2 0.00 0.00 0.00 27 1017.8
20200531043602 80 360 1.7 7.8 0.00 0.00 0.00 27 1017.7
20200531043155 81 360 3.5 10.4 0.00 0.00 0.00 26 1017.7
20200531042555 81 252 6.1 10.4 0.00 0.00 0.00 26 1017.6
20200531042116 81 360 2.6 9.6 0.00 0.00 0.00 25 1017.5
20200531041756 81 264 5.2 9.6 0.00 0.00 0.00 24 1017.5
20200531041054 81 245 0.0 3.5 0.00 0.00 0.00 24 1017.4
20200531040557 81 264 0.9 4.3 0.00 0.00 0.00 24 1017.3
20200531040230 82 252 0.9 6.1 0.00 0.00 0.00 23 1017.2
20200531035554 82 250 3.5 7.0 0.00 0.00 0.00 23 1017.2
20200531035113 83 232 3.5 7.8 0.00 0.00 0.00 22 1017.1
20200531034717 83 243 4.3 9.6 0.00 0.00 0.00 22 1017.1
20200531034109 84 360 4.3 9.6 0.00 0.00 0.00 22 1017.0
20200531033557 84 360 5.2 8.7 0.00 0.00 0.00 21 1017.1
20200531033140 84 220 4.3 7.8 0.00 0.00 0.00 21 1017.2
20200531032558 84 220 1.7 7.8 0.00 0.00 0.00 21 1017.2
20200531032057 85 233 2.6 7.8 0.00 0.00 0.00 20 1017.3
20200531031823 85 360 4.3 6.1 0.00 0.00 0.00 20 1017.2
20200531031057 85 264 1.7 5.2 0.00 0.00 0.00 20 1017.2
20200531030554 85 360 1.7 7.8 0.00 0.00 0.00 20 1017.1
20200531030148 85 236 4.3 8.7 0.00 0.00 0.00 19 1017.0
20200531025555 85 360 5.2 8.7 0.00 0.00 0.00 19 1016.8
20200531025104 85 263 4.3 8.7 0.00 0.00 0.00 20 1016.7
20200531024624 84 264 3.5 7.8 0.00 0.00 0.00 21 1016.5
20200531024104 84 243 4.3 8.7 0.00 0.00 0.00 21 1016.5
20200531023555 84 360 5.2 8.7 0.00 0.00 0.00 21 1016.4
20200531023332 84 360 5.2 7.0 0.00 0.00 0.00 21 1016.5
20200531022554 85 360 2.6 5.2 0.00 0.00 0.00 21 1016.5
20200531022054 85 360 2.6 6.1 0.00 0.00 0.00 20 1016.5
20200531021631 85 360 3.5 7.0 0.00 0.00 0.00 20 1016.4
20200531021113 85 360 2.6 9.6 0.00 0.00 0.00 20 1016.4
20200531020557 86 360 4.3 9.6 0.00 0.00 0.00 20 1016.3
20200531020140 86 360 5.2 10.4 0.00 0.00 0.00 20 1016.4
20200531015556 86 360 7.8 10.4 0.00 0.00 0.00 20 1016.2
20200531015102 86 259 6.1 15.6 0.00 0.00 0.00 19 1016.2
20200531014758 87 250 8.7 15.6 0.00 0.00 0.00 19 1016.1
20200531014056 87 257 7.8 13.9 0.00 0.00 0.00 19 1016.0
20200531013557 87 360 6.1 13.9 0.00 0.00 0.00 18 1016.1
20200531013127 88 360 7.8 11.3 0.00 0.00 0.00 18 1016.1
20200531012555 88 360 5.2 11.3 0.00 0.00 0.00 18 1016.0
20200531012056 89 360 3.5 7.0 0.00 0.00 0.00 18 1015.9
20200531011650 89 360 3.5 7.0 0.00 0.00 0.00 18 1015.9
20200531011055 90 248 1.7 7.8 0.00 0.00 0.00 17 1015.9
20200531010558 91 360 2.6 8.7 0.00 0.00 0.00 17 1015.8
20200531010203 91 237 2.6 8.7 0.00 0.00 0.00 16 1015.8
20200531005600 92 0 0.0 0.9 0.00 0.00 0.00 13 1015.7
20200531005104 92 0 0.0 2.6 0.00 0.00 0.00 13 1015.5
20200531004630 92 0 0.0 8.7 0.00 0.00 0.00 13 1015.5
20200531004054 92 0 3.5 8.7 0.00 0.00 0.00 13 1015.4
20200531003559 93 104 5.2 7.8 0.00 0.00 0.00 12 1015.5
20200531003136 93 0 0.0 6.1 0.00 0.00 0.00 12 1015.5
20200531002555 93 0 1.7 6.1 0.00 0.00 0.00 12 1015.6
20200531002100 93 0 0.0 5.2 0.00 0.00 0.00 12 1015.6
20200531001626 93 360 1.7 4.3 0.00 0.00 0.00 12 1015.7
20200531001056 93 86 0.0 5.2 0.00 0.00 0.00 12 1015.7
20200531000603 93 0 0.9 5.2 0.00 0.00 0.00 12 1015.7
20200531000128 93 110 0.9 6.1 0.00 0.00 0.00 12 1015.8
20200530235556 93 0 0.0 6.1 0.00 0.00 0.00 12 1015.9
20200530235108 94 0 2.6 6.1 0.00 0.00 0.00 12 1016.0
20200530234641 94 0 0.0 5.2 0.00 0.00 0.00 12 1016.0
20200530234054 94 121 1.7 5.2 0.00 0.00 0.00 12 1016.1
20200530233556 94 129 0.0 8.7 0.00 0.00 0.00 12 1016.0
20200530233128 94 132 1.7 8.7 0.00 0.00 0.00 11 1016.0
20200530232556 95 120 3.5 7.0 0.00 0.00 0.00 11 1016.1
20200530232054 95 0 1.7 12.2 0.00 0.00 0.00 11 1016.2
20200530231905 96 106 6.1 12.2 0.00 0.00 0.00 11 1016.2
20200530231103 96 122 1.7 7.0 0.00 0.00 0.00 11 1016.2
20200530230600 96 122 1.7 8.7 0.00 0.00 0.00 11 1016.3
20200530230140 96 122 4.3 8.7 0.00 0.00 0.00 11 1016.2
20200530225556 96 126 2.6 13.0 0.00 0.00 0.00 11 1016.2
20200530225058 96 91 6.1 13.0 0.00 0.00 0.00 11 1016.3
20200530224624 96 108 3.5 8.7 0.00 0.00 0.00 11 1016.3
20200530224056 96 72 4.3 10.4 0.00 0.00 0.00 11 1016.3
20200530223603 96 96 5.2 10.4 0.00 0.00 0.00 11 1016.3
20200530223249 96 87 0.9 6.1 0.00 0.00 0.00 11 1016.3
20200530222558 96 98 0.0 6.1 0.00 0.00 0.00 12 1016.3
20200530222055 96 0 0.9 8.7 0.00 0.00 0.00 12 1016.3
20200530221718 95 0 0.9 8.7 0.00 0.00 0.00 12 1016.3
20200530221053 96 0 0.0 11.3 0.00 0.00 0.00 11 1016.6
20200530220554 97 104 2.6 11.3 0.00 0.00 0.00 11 1016.6
20200530220140 97 136 1.7 8.7 0.00 0.00 0.00 11 1016.6
20200530215554 97 74 1.7 7.8 0.00 0.00 0.00 11 1016.7
20200530215054 97 103 0.0 3.5 0.00 0.00 0.00 11 1016.8
20200530214623 96 0 0.0 5.2 0.00 0.00 0.00 12 1016.8
20200530214056 95 0 2.6 7.8 0.00 0.00 0.00 11 1017.0
20200530213601 96 89 1.7 13.0 0.00 0.00 0.00 11 1017.1
20200530213137 97 0 2.6 13.0 0.00 0.00 0.00 11 1017.2
20200530212556 97 108 3.5 15.6 0.00 0.00 0.00 11 1017.3
20200530212057 96 0 4.3 15.6 0.00 0.00 0.00 12 1017.3
20200530211736 97 96 2.6 8.7 0.00 0.00 0.00 11 1017.4
20200530211103 98 137 0.0 6.1 0.00 0.00 0.00 11 1017.6
20200530210555 98 0 0.0 6.1 0.00 0.00 0.00 12 1017.8
20200530210217 97 0 0.0 7.0 0.00 0.00 0.00 11 1017.9
20200530205600 97 0 0.0 7.8 0.00 0.00 0.00 12 1018.0
20200530205054 97 96 4.3 11.3 0.00 0.00 0.00 11 1018.0
20200530204743 98 111 4.3 11.3 0.00 0.00 0.00 11 1018.2
20200530204054 96 103 1.7 8.7 0.00 0.00 0.00 11 1018.1
20200530203553 96 0 1.7 9.6 0.00 0.00 0.00 11 1018.4
20200530203121 96 105 3.5 10.4 0.00 0.00 0.00 12 1018.4
20200530202557 96 99 1.7 11.3 0.00 0.00 0.00 13 1018.5
20200530202057 95 77 7.8 12.2 0.00 0.00 0.00 12 1018.5
20200530201626 95 81 6.1 16.5 0.00 0.00 0.00 13 1018.5
20200530201057 96 0 7.8 16.5 0.00 0.00 0.00 13 1018.6
20200530200554 97 109 6.1 11.3 0.00 0.00 0.00 12 1018.7
20200530200219 96 94 2.6 10.4 0.00 0.00 0.00 13 1018.7
20200530195555 96 101 4.3 12.2 0.00 0.00 0.00 12 1018.8
20200530195056 97 0 0.9 13.9 0.00 0.00 0.00 12 1018.8
20200530194628 97 112 3.5 13.9 0.00 0.00 0.00 12 1019.0
20200530194058 96 76 1.7 8.7 0.00 0.00 0.00 13 1018.8
20200530193556 96 0 0.9 9.6 0.00 0.00 0.00 12 1019.1
20200530193148 96 0 0.9 9.6 0.00 0.00 0.00 13 1019.0
20200530192556 95 0 0.9 15.6 0.00 0.00 0.00 13 1019.1
20200530192053 96 63 3.5 15.6 0.00 0.00 0.00 12 1019.2
20200530191637 96 101 3.5 9.6 0.00 0.00 0.00 13 1019.2
20200530191056 96 0 0.9 10.4 0.00 0.00 0.00 13 1019.2
20200530190603 95 0 3.5 12.2 0.00 0.00 0.00 14 1019.5
20200530190211 95 103 7.0 12.2 0.00 0.00 0.00 13 1019.5
20200530185556 95 66 6.1 13.0 0.00 0.00 0.00 13 1019.6
20200530185058 96 84 6.1 13.0 0.00 0.00 0.00 13 1019.7
20200530184652 95 102 2.6 13.0 0.00 0.00 0.00 14 1019.8
20200530184054 95 89 8.7 13.0 0.00 0.00 0.00 13 1019.8
20200530183554 95 87 2.6 13.0 0.00 0.00 0.00 14 1019.7
20200530183126 95 75 5.2 13.0 0.00 0.00 0.00 13 1019.7
20200530182554 95 0 4.3 12.2 0.00 0.00 0.00 14 1019.8
20200530182058 95 96 4.3 11.3 0.00 0.00 0.00 14 1019.9
20200530181615 95 98 2.6 14.8 0.00 0.00 0.00 14 1019.9
20200530181053 95 63 7.0 14.8 0.00 0.00 0.00 13 1020.0
20200530180557 95 100 6.1 13.9 0.00 0.00 0.00 14 1020.1
20200530180214 94 77 6.1 13.9 0.00 0.00 0.00 15 1020.1
20200530175554 94 107 5.2 13.0 0.00 0.00 0.00 14 1020.1
20200530175054 94 83 7.0 12.2 0.00 0.00 0.00 14 1020.1
20200530174636 94 63 7.8 12.2 0.00 0.00 0.00 14 1020.2
20200530174056 93 88 2.6 12.2 0.00 0.00 0.00 15 1020.2
20200530173556 93 87 2.6 11.3 0.00 0.00 0.00 14 1020.3
20200530173137 93 83 7.0 13.9 0.00 0.00 0.00 15 1020.4
20200530172557 93 81 7.0 13.9 0.00 0.00 0.00 15 1020.6
20200530172059 92 94 3.5 9.6 0.00 0.00 0.00 18 1020.6
20200530171649 92 61 1.7 8.7 0.00 0.00 0.00 17 1020.5
20200530171059 91 0 0.9 6.1 0.00 0.00 0.00 19 1020.5
20200530170553 91 61 1.7 6.1 0.00 0.00 0.00 19 1020.6
20200530170111 90 0 0.0 6.1 0.00 0.00 0.00 18 1020.5
20200530165554 89 40 0.0 3.5 0.00 0.00 0.00 20 1020.5
20200530165054 89 0 0.0 3.5 0.00 0.00 0.00 22 1020.5
20200530164656 88 323 0.0 1.7 0.00 0.00 0.00 24 1020.4
20200530164058 88 0 0.0 1.7 0.00 0.00 0.00 25 1020.6
20200530163601 87 0 0.0 1.7 0.00 0.00 0.00 23 1020.6
20200530163134 86 0 0.0 1.7 0.00 0.00 0.00 25 1020.6
20200530162553 86 321 0.0 0.9 0.00 0.00 0.00 26 1020.6
20200530162053 85 0 0.0 0.0 0.00 0.00 0.00 26 1020.6
20200530161627 85 0 0.0 0.0 0.00 0.00 0.00 25 1020.6
20200530161056 85 0 0.0 0.0 0.00 0.00 0.00 26 1020.6
20200530160614 84 0 0.0 0.0 0.00 0.00 0.00 28 1020.8
20200530160130 83 0 0.0 0.9 0.00 0.00 0.00 28 1020.8
20200530155559 83 0 0.0 0.9 0.00 0.00 0.00 28 1020.7
20200530155057 82 0 0.0 0.0 0.00 0.00 0.00 29 1020.9
20200530154635 82 0 0.0 0.0 0.00 0.00 0.00 29 1020.9
20200530154055 82 0 0.0 0.0 0.00 0.00 0.00 30 1020.9
20200530153556 81 0 0.0 0.0 0.00 0.00 0.00 34 1020.8
20200530153207 81 0 0.0 0.0 0.00 0.00 0.00 34 1021.0
20200530152555 80 0 0.0 0.0 0.00 0.00 0.00 34 1021.0
20200530152056 80 0 0.0 0.0 0.00 0.00 0.00 34 1020.9
20200530151705 79 0 0.0 0.0 0.00 0.00 0.00 36 1021.0
20200530151058 79 0 0.0 0.0 0.00 0.00 0.00 38 1020.9
20200530150554 78 0 0.0 0.0 0.00 0.00 0.00 37 1020.9
20200530150147 77 0 0.0 0.0 0.00 0.00 0.00 38 1020.9
20200530145554 77 0 0.0 0.0 0.00 0.00 0.00 39 1020.9
20200530145112 77 0 0.0 0.0 0.00 0.00 0.00 40 1020.9
20200530144610 76 0 0.0 0.0 0.00 0.00 0.00 40 1020.8
20200530144056 76 0 0.0 0.0 0.00 0.00 0.00 41 1020.8
20200530143554 75 0 0.0 0.0 0.00 0.00 0.00 43 1020.8
20200530143053 75 0 0.0 0.0 0.00 0.00 0.00 44 1020.8
20200530142554 74 0 0.0 0.0 0.00 0.00 0.00 46 1020.7
20200530142057 73 0 0.0 0.0 0.00 0.00 0.00 47 1020.7
20200530141618 73 0 0.0 0.0 0.00 0.00 0.00 47 1020.7
20200530141055 72 0 0.0 0.0 0.00 0.00 0.00 47 1020.6
20200530140553 72 0 0.0 0.0 0.00 0.00 0.00 48 1020.5
20200530140140 71 0 0.0 0.0 0.00 0.00 0.00 49 1020.5
20200530135553 70 0 0.0 0.0 0.00 0.00 0.00 49 1020.6
20200530135121 70 0 0.0 0.0 0.00 0.00 0.00 50 1020.6
20200530134618 70 0 0.0 0.9 0.00 0.00 0.00 49 1020.6
20200530134056 70 0 0.0 0.9 0.00 0.00 0.00 48 1020.6
20200530133606 70 0 0.0 0.0 0.00 0.00 0.00 54 1020.5
20200530133146 69 0 0.0 0.0 0.00 0.00 0.00 52 1020.5
20200530132609 68 0 0.0 0.0 0.00 0.00 0.00 48 1020.6
20200530132059 67 0 0.0 0.0 0.00 0.00 0.00 50 1020.5
20200530131702 66 0 0.0 0.0 0.00 0.00 0.00 52 1020.4
20200530131056 65 0 0.0 0.0 0.00 0.00 0.00 53 1020.4
20200530130557 64 0 0.0 0.0 0.00 0.00 0.00 53 1020.4
20200530130140 63 0 0.0 0.0 0.00 0.00 0.00 54 1020.4
20200530125628 63 0 0.0 0.0 0.00 0.00 0.00 54 1020.4
20200530125052 62 0 0.0 0.0 0.00 0.00 0.00 55 1020.3
20200530124656 61 0 0.0 0.0 0.00 0.00 0.00 57 1020.3
20200530124055 60 0 0.0 0.0 0.00 0.00 0.00 58 1020.3
20200530123553 59 0 0.0 0.0 0.00 0.00 0.00 59 1020.3
20200530123117 60 0 0.0 1.7 0.00 0.00 0.00 59 1020.3
20200530122553 60 0 0.0 1.7 0.00 0.00 0.00 59 1020.3
20200530122057 60 0 0.0 0.9 0.00 0.00 0.00 58 1020.2
20200530121716 60 0 0.0 1.7 0.00 0.00 0.00 57 1020.1
20200530121053 61 0 0.0 1.7 0.00 0.00 0.00 56 1020.0
20200530120556 60 295 0.0 0.9 0.00 0.00 0.00 57 1019.9
20200530120236 61 0 0.0 0.9 0.00 0.00 0.00 57 1019.9
20200530115608 60 0 0.0 0.0 0.00 0.00 0.00 58 1019.9
20200530115055 60 0 0.0 1.7 0.00 0.00 0.00 59 1019.8
20200530114628 60 0 0.0 1.7 0.00 0.00 0.00 58 1019.9
20200530114108 60 0 0.0 1.7 0.00 0.00 0.00 58 1019.9
20200530113617 60 295 0.0 0.9 0.00 0.00 0.00 58 1019.8
20200530113149 60 0 0.0 0.9 0.00 0.00 0.00 58 1019.8
20200530112556 60 0 0.0 0.9 0.00 0.00 0.00 57 1019.9
20200530112059 60 0 0.0 0.0 0.00 0.00 0.00 57 1019.9
20200530111714 60 0 0.0 1.7 0.00 0.00 0.00 57 1020.0
20200530111057 60 0 0.0 1.7 0.00 0.00 0.00 57 1019.9
20200530110604 60 0 0.0 0.0 0.00 0.00 0.00 58 1020.1
20200530110125 60 0 0.0 0.0 0.00 0.00 0.00 58 1020.0
20200530105600 60 0 0.0 0.0 0.00 0.00 0.00 58 1020.1
20200530105101 60 0 0.0 0.0 0.00 0.00 0.00 58 1020.1
20200530104628 60 0 0.0 0.0 0.00 0.00 0.00 58 1020.1
20200530104056 60 0 0.0 0.0 0.00 0.00 0.00 58 1020.2
20200530103553 60 0 0.0 0.0 0.00 0.00 0.00 57 1020.2
20200530103142 61 0 0.0 0.0 0.00 0.00 0.00 56 1020.4
20200530102629 61 0 0.0 0.0 0.00 0.00 0.00 56 1020.4
20200530102055 62 0 0.0 0.9 0.00 0.00 0.00 57 1020.2
20200530101625 62 0 0.0 0.9 0.00 0.00 0.00 54 1020.2
20200530101056 62 0 0.0 0.0 0.00 0.00 0.00 53 1020.3
20200530100559 63 0 0.0 0.9 0.00 0.00 0.00 52 1020.2
20200530100207 63 0 0.0 0.9 0.00 0.00 0.00 52 1020.2
20200530095608 63 0 0.0 1.7 0.00 0.00 0.00 53 1020.2
20200530095053 63 0 0.0 1.7 0.00 0.00 0.00 53 1020.3
20200530094639 62 295 0.0 0.9 0.00 0.00 0.00 53 1020.3
20200530094053 63 0 0.0 1.7 0.00 0.00 0.00 53 1020.2
20200530093555 62 0 0.0 1.7 0.00 0.00 0.00 53 1020.3
20200530093148 63 0 0.0 1.7 0.00 0.00 0.00 53 1020.4
20200530092606 63 0 0.0 1.7 0.00 0.00 0.00 52 1020.3
20200530092053 63 0 0.0 0.0 0.00 0.00 0.00 53 1020.3
20200530091655 63 0 0.0 0.9 0.00 0.00 0.00 53 1020.4
20200530091052 63 0 0.0 0.9 0.00 0.00 0.00 53 1020.3
20200530090556 63 0 0.0 0.9 0.00 0.00 0.00 52 1020.5
20200530090325 64 0 0.0 0.0 0.00 0.00 0.00 51 1020.4
20200530085558 64 0 0.0 0.9 0.00 0.00 0.00 52 1020.4
20200530085058 64 0 0.0 0.9 0.00 0.00 0.00 52 1020.6
20200530084700 64 0 0.0 0.9 0.00 0.00 0.00 52 1020.7
20200530084058 64 0 0.0 0.0 0.00 0.00 0.00 52 1020.7
20200530083555 64 0 0.0 0.0 0.00 0.00 0.00 51 1020.8
20200530083232 65 0 0.0 0.0 0.00 0.00 0.00 50 1020.9
20200530082555 65 0 0.0 0.0 0.00 0.00 0.00 50 1020.9
20200530082056 66 0 0.0 0.0 0.00 0.00 0.00 50 1021.0
20200530081925 66 0 0.0 0.9 0.00 0.00 0.00 50 1021.2
20200530081057 66 0 0.0 0.9 0.00 0.00 0.00 49 1021.1
20200530080557 65 0 0.0 1.7 0.00 0.00 0.00 52 1021.2
20200530080149 64 0 0.0 1.7 0.00 0.00 0.00 51 1021.3
20200530075603 65 296 0.0 1.7 0.00 0.00 0.00 49 1021.3
20200530075102 67 0 0.0 0.0 0.00 0.00 0.00 47 1021.3
20200530074638 68 0 0.0 0.0 0.00 0.00 0.00 47 1021.4
20200530074058 68 0 0.0 0.0 0.00 0.00 0.00 45 1021.3
20200530073555 68 0 0.0 0.0 0.00 0.00 0.00 46 1021.4
20200530073136 67 0 0.0 0.0 0.00 0.00 0.00 48 1021.4
20200530072558 67 0 0.0 1.7 0.00 0.00 0.00 50 1021.4
20200530072058 66 0 0.0 1.7 0.00 0.00 0.00 51 1021.4
20200530071618 67 0 0.0 0.9 0.00 0.00 0.00 48 1021.4